Matan Peretz

Olheiro-Chefe - Hapoel Kfar Saba
5 Dez 2027
Domingo
Processo

Personalidade

Adaptabilidade (9) Ambição (19) Controvérsia (4) Lealdade (10) Pressão (10) Profissionalismo (1) Espírito Esportivo (6) Temperamento (11)

Perfil

Estilo de Treinamento Democrático
Licença Continental B
Determinação 5
Gestão de Pessoas 9
Motivação 5
Disciplina 5
Satisfação no Trabalho
100%
Fadiga
0%
Função Olheiro-Chefe
Salário 28.0K p/s
Contrato 14.03.2028

Desempenho

Comportamento Bom
Eficácia do Treinamento
28%
Desenvolvimento do Jogador
50%
Prevenção de Lesões
50%
Implementação Tática
30%

Eventos Recentes

Participou de uma reunião de recrutamento 7d atrás
Participou de uma reunião de recrutamento 14d atrás
Participou de uma reunião de recrutamento 21d atrás
Participou de uma reunião de recrutamento 28d atrás
Participou de uma reunião de recrutamento 35d atrás
Participou de uma reunião de recrutamento 42d atrás
Participou de uma reunião de recrutamento 49d atrás
Participou de uma reunião de recrutamento 56d atrás

Monitorando agora

118
Jogador Clube Status Habilidade Confiança Observado Última observação Último voto
Roey Magor Maccabi Tel Aviv Perdido 68 / 83 41% 1 19.07.2027 -
Aidomo Emakhu Oxford United Ativo 118 / 107 40% 3 23.06.2027 -
Fabrizio Cavegn Bristol Rovers Ativo 135 / 122 40% 2 21.06.2027 -
Mattia Bortolussi Padova Ativo 116 / 139 40% 1 21.06.2027 -
Abu Kamara Portsmouth Ativo 129 / 120 40% 1 21.06.2027 -
Kyle Joseph Middlesbrough Ativo 123 / 104 40% 3 19.06.2027 -
Niall Ennis Blackpool Ativo 94 / 119 40% 1 18.06.2027 -
Aaron Drinan Swindon Town Ativo 94 / 116 40% 2 17.06.2027 -
Jaze Kabia Grimsby Town Ativo 109 / 112 40% 2 16.06.2027 -
Daniel Paraschiv Bnei Sakhnin Ativo 123 / 121 40% 3 14.06.2027 -
George Brown Sheffield Wednesday Ativo 110 / 115 40% 1 14.06.2027 -
Jude Soonsup-Bell Oldham Athletic Ativo 101 / 84 40% 2 12.06.2027 -
Matteo Rover Reggiana Ativo 135 / 133 40% 1 11.06.2027 -
Federico Di Francesco Catanzaro Ativo 137 / 99 40% 2 10.06.2027 -
Richard Koné Queens Park Rangers Ativo 143 / 111 40% 1 08.06.2027 -
Will Evans Mansfield Town Ativo 98 / 116 40% 1 06.06.2027 -
Tyrese Shade Burton Albion Ativo 90 / 102 40% 1 05.06.2027 -
Nathan Bishop AFC Wimbledon Ativo 89 / 102 40% 1 01.06.2027 -
Luke McGee Tranmere Rovers Perdido 87 / 108 40% 1 01.06.2027 -
Malik Mothersille Stockport County Ativo 107 / 102 40% 1 30.05.2027 -
Przemysław Płacheta Blackburn Rovers Ativo 98 / 131 40% 1 30.05.2027 -
Estanis Pedrola Oviedo Ativo 108 / 124 40% 2 25.05.2027 -
Durel Avounou Bnei Sakhnin Ativo 124 / 100 40% 3 25.05.2027 -
Brayann Pereira West Bromwich Albion Ativo 121 / 122 40% 1 24.05.2027 -
Boris Enow Beitar Jerusalem Ativo 107 / 121 40% 1 21.05.2027 -
Daniel Phillips Stevenage Ativo 108 / 102 40% 1 20.05.2027 -
Domagoj Bradarić Hellas Verona Ativo 111 / 118 40% 2 18.05.2027 -
Samson Tovide Colchester United Ativo 85 / 89 40% 1 18.05.2027 -
Tomer Yosefi Beitar Jerusalem Ativo 106 / 119 40% 3 15.05.2027 -
Sebastián Arce Rodina Ativo 115 / 105 40% 2 13.05.2027 -
Moussa Yeo Swansea City Ativo 118 / 117 40% 1 13.05.2027 -
Christian Nuhu Wa All Stars Ativo 93 / 101 40% 3 11.05.2027 -
Julio Alonso Huesca Ativo 121 / 121 40% 3 07.05.2027 -
Lechi Sadulaev Akhmat Grozny Ativo 102 / 136 40% 1 04.05.2027 -
Enrico Delprato Parma Ativo 156 / 130 40% 2 01.05.2027 -
Lander Astiazarán Real Sociedad Ativo 109 / 128 40% 2 01.05.2027 -
Aviv Salem Maccabi Petach Tikva Ativo 109 / 100 40% 2 30.04.2027 -
Ekain Orobengoa Real Sociedad Ativo 101 / 110 40% 2 25.04.2027 -
Stanley Mills Oxford United Ativo 123 / 132 40% 1 22.04.2027 -
Adrià Altimira Deportivo La Coruña Ativo 108 / 131 40% 2 21.04.2027 -
Nana Antwi Beitar Jerusalem Ativo 99 / 120 40% 1 19.04.2027 -
Isaac Oppong Hapoel Raanana Ativo 87 / 83 40% 2 18.04.2027 -
Dion Pereira Crawley Town Ativo 108 / 98 40% 1 18.04.2027 -
Lucas Pires Burnley Ativo 112 / 132 40% 1 15.04.2027 -
Loay Halaf Bnei Sakhnin Ativo 84 / 93 40% 2 14.04.2027 -
Li On Mizrahi Maccabi Netanya Ativo 92 / 100 40% 2 14.04.2027 -
Nadav Niddam Maccabi Netanya Ativo 95 / 121 40% 1 13.04.2027 -
Matty Cudjoe Bnei Sakhnin Ativo 125 / 102 40% 1 13.04.2027 -
Ovadia Darwish Hapoel Kiryat Shmona Ativo 99 / 88 40% 2 11.04.2027 -
Tiago Mamede Portimonense Ativo 94 / 106 40% 1 07.04.2027 -
Karem Jaber Maccabi Netanya Ativo 96 / 101 40% 1 19.03.2027 -
Nemanja Ljubisavljević Hapoel Kiryat Shmona Ativo 110 / 93 40% 1 16.03.2027 -
Andrian Kraev Hapoel Tel Aviv Ativo 117 / 129 40% 1 16.03.2027 -
Shai Elias Hapoel Haifa Ativo 121 / 110 40% 2 15.03.2027 -
Jarleysom Portimonense Ativo 117 / 116 40% 1 11.03.2027 -
Juan Giménez Rayo Vallecano Ativo 108 / 124 40% 1 11.03.2027 -
Ilja Vakhania Krasnodar Ativo 126 / 137 40% 1 10.03.2027 -
Iker Pozo Rodina Ativo 128 / 127 40% 1 10.03.2027 -
Myles Kenlock Barnet Ativo 73 / 99 40% 1 08.03.2027 -
Assaf Tzur Hapoel Tel Aviv Ativo 124 / 108 40% 1 11.01.2027 -
Samuel Schlupp BA All Stars Ativo 77 / 80 40% 1 11.01.2027 -
El Yam Kancepolsky Hapoel Tel Aviv Ativo 101 / 96 41% 1 07.01.2027 -
Bali Mumba Huddersfield Town Ativo 130 / 108 40% 1 02.01.2027 -
Matheus Davó Maccabi Netanya Ativo 108 / 107 40% 4 27.12.2026 -
German Onugkha Rodina Ativo 138 / 109 40% 2 25.12.2026 -
Kenan Dervišagić Floriana Ativo 81 / 111 40% 1 25.12.2026 -
Vladislav Sarveli Nizhniy Novgorod Ativo 98 / 108 40% 2 24.12.2026 -
Thalys Almería Ativo 102 / 111 40% 1 22.12.2026 -
Kamran Aliev SKA Khabarovsk Ativo 102 / 86 40% 2 19.12.2026 -
Stav Nachmani Bnei Yehuda Ativo 111 / 100 40% 1 19.12.2026 -
Yarden Shua Beitar Jerusalem Ativo 121 / 121 40% 1 16.12.2026 -
Filip Stojanovic NK Domzale Ativo 130 / 114 40% 3 15.12.2026 -
Anas Mahamid Beitar Jerusalem Ativo 99 / 97 40% 1 12.12.2026 -
Igor Zlatanović Hapoel Beer Sheva Ativo 127 / 109 40% 4 09.12.2026 -
Emmanuel Boateng Hapoel Tel Aviv Ativo 134 / 125 40% 3 07.12.2026 -
Willy Agada Hapoel Haifa Ativo 98 / 115 40% 3 05.12.2026 -
Ammar Ramadan DAC Dunajska Streda Ativo 118 / 106 40% 3 04.12.2026 -
Indrit Tuci Olimpija Ljubljana Ativo 128 / 123 40% 1 27.11.2026 -
Martin Sekulić Ural Ativo 89 / 97 40% 3 26.11.2026 -
Tio Cipot NK Maribor Ativo 106 / 114 40% 1 26.11.2026 -
Manprit Sarkaria Austria Wien Ativo 122 / 97 40% 1 25.11.2026 -
Manu Nieto Andorra Ativo 126 / 113 40% 1 21.11.2026 -
Andreas Gruber DAC Dunajska Streda Ativo 106 / 108 40% 2 20.11.2026 -
Wilson Harris Bnei Yehuda Ativo 82 / 88 40% 2 18.11.2026 -
Job Ochieng Real Sociedad Ativo 96 / 119 40% 1 16.11.2026 -
Patrick Agyemang Derby County Ativo 119 / 138 40% 2 14.11.2026 -
Lee Bonis Chesterfield Ativo 121 / 82 40% 1 11.11.2026 -
Patrik Iľko MSK Zilina Ativo 119 / 118 40% 1 09.11.2026 -
François Kamano Sochi Ativo 113 / 131 40% 1 08.11.2026 -
Lukáš Juliš MSK Zilina Ativo 102 / 102 40% 2 07.11.2026 -
Ilja Stefanovich Leningradets Ativo 94 / 102 40% 1 02.11.2026 -
Osama Khalaila Hapoel Acre Ativo 105 / 86 40% 1 31.10.2026 -
Marcus Browne AFC Wimbledon Ativo 117 / 87 40% 2 30.10.2026 -
Roy Levy Hapoel Beer Sheva Ativo 98 / 117 40% 1 28.10.2026 -
Max Svensson Penafiel Ativo 104 / 102 40% 1 27.10.2026 -
Alassana Jatta Notts County Ativo 83 / 94 40% 1 27.10.2026 -
Danila Shilov Dinamo Stavropol Ativo 71 / 91 40% 1 23.10.2026 -
Ben Adadi Bnei Yehuda Ativo 95 / 95 40% 1 18.10.2026 -
Yeangel Montero Naxxar Lions Ativo 100 / 119 40% 1 13.10.2026 -
Mohammed Khatib Hapoel Acre Ativo 77 / 102 40% 1 12.10.2026 -
David Barbona Defensa y Justicia Ativo 134 / 114 40% 2 09.10.2026 -
Agustín Alaniz Juventud Ativo 104 / 120 40% 1 05.10.2026 -
Adar Ratner Maccabi Petach Tikva Ativo 116 / 107 40% 1 25.09.2026 -
Jonathan Cañete Portuguesa Ativo 88 / 127 40% 1 25.09.2026 -
Lewis McCann Fleetwood Town Ativo 92 / 107 40% 1 24.09.2026 -
Leandro Godoy CSKA Sofia Ativo 108 / 114 40% 1 23.09.2026 -
Uilliam Barros Persib Ativo 108 / 116 40% 1 21.09.2026 -
Robert Murić Floriana Ativo 77 / 104 40% 1 19.09.2026 -
Richard Celis Zamora Ativo 84 / 107 40% 1 19.09.2026 -
Adalberto Peñaranda Deportivo Tachira Ativo 95 / 108 40% 1 18.09.2026 -
Matej Trusa DAC Dunajska Streda Ativo 129 / 115 40% 1 17.09.2026 -
Rafael Arace Mineros de Guayana Ativo 127 / 118 40% 1 17.09.2026 -
Adam Idah Swansea City Ativo 124 / 122 40% 1 14.09.2026 -
Johnbosco Samuel Kalu Hapoel Beer Sheva Ativo 96 / 96 40% 1 10.09.2026 -
Sayed Abu Farchi Maccabi Tel Aviv Ativo 124 / 119 40% 1 08.09.2026 -
Hakeeb Adelakun Doncaster Rovers Ativo 100 / 115 40% 1 08.09.2026 -
Modestas Vorobjovas Bnei Sakhnin Ativo 121 / 116 40% 1 01.08.2026 -
Dan Glazer Maccabi Tel Aviv Ativo 112 / 121 40% 1 01.08.2026 -